Regional Weather Roundup
Issued by NWS

Home | Current Version | Previous Version | Text Only | Print | Product List | Glossary On
Versions: 1 2 3 4 5 6 7 8 9 10 11 12 13 14 15 16 17 18 19 20 21 22 23 24 25 26 27 28 29 30 31 32 33 34 35 36 37 38 39 40 41 42 43 44 45 46 47 48 49 50
000
ASUS43 KDTX 281210
RWRMI
MICHIGAN HOURLY REGIONAL WEATHER ROUNDUP
NATIONAL WEATHER SERVICE DETROIT/PONTIAC MI
700 AM EST WED JAN 28 2015

NOTE: "FAIR" INDICATES FEW OR NO CLOUDS BELOW 12,000 FEET WITH NO
SIGNIFICANT WEATHER AND/OR OBSTRUCTION TO VISIBILITY.

MIZ047>049-052>055-059>063-066>070-074>076-081>083-281300-
SOUTHEAST LOWER MICHIGAN

CITY           SKY/WX    TMP DP  RH WIND       PRES   REMARKS
ADRIAN         PTCLDY     7   3  84 CALM      30.33S
6HR MIN TEMP:   7; 6HR MAX TEMP:  10;

ALMA           PTCLDY     6   4  91 CALM      30.31S
ANN ARBOR      PTCLDY     8   4  83 CALM      30.32R
BAD AXE        PTCLDY     2   0  89 CALM      30.32R
6HR MIN TEMP:   2; 6HR MAX TEMP:   8;

DETROIT CITY   PTCLDY    14   8  77 NW3       30.34R
6HR MIN TEMP:  13; 6HR MAX TEMP:  19;

DETROIT        PTCLDY    12   8  84 CALM      30.35R
6HR MIN TEMP:  11; 6HR MAX TEMP:  15;

FLINT          PTCLDY     6   1  80 S5        30.32R
6HR MIN TEMP:   5; 6HR MAX TEMP:  12;

GROSSE ILE     PTCLDY    12   9  85 NW5       30.33R
HILLSDALE      PTCLDY     7   4  88 CALM      30.29R
6HR MIN TEMP:   5; 6HR MAX TEMP:  11;

HOWELL         PTCLDY     6   3  87 CALM      30.30S
6HR MIN TEMP:   6; 6HR MAX TEMP:  11;


CITY           SKY/WX    TMP DP  RH WIND       PRES   REMARKS
JACKSON        PTCLDY     7   2  80 CALM      30.31R
6HR MIN TEMP:   6; 6HR MAX TEMP:  10;

LAMBERTVILLE   PTCLDY    10   5  79 CALM      30.35R
LANSING        PTCLDY    11   5  77 CALM      30.32R
6HR MIN TEMP:   8; 6HR MAX TEMP:  12;

LAPEER         NOT AVBL
MASON          PTCLDY     8   5  87 S3        30.31R
MONROE         PTCLDY    10   9  92 CALM      30.32R
MT. CLEMENS    PTCLDY     8   4  87 N2        30.32R
6HR MIN TEMP:   8; 6HR MAX TEMP:  15;

PONTIAC        PTCLDY     9   6  88 N3        30.30R
6HR MIN TEMP:   5; 6HR MAX TEMP:  10;

PORT HOPE        N/A     13   9  84 W7        30.29R
6HR MIN TEMP:   9; 6HR MAX TEMP:  23;

PORT HURON     PTCLDY     0  -4  85 CALM      30.32S
TRI CITIES     PTCLDY    10   4  76 SW3       30.32S
6HR MIN TEMP:   9; 6HR MAX TEMP:  15;

YPSILANTI      PTCLDY    13   5  70 N6        30.34R
6HR MIN TEMP:  11; 6HR MAX TEMP:  16;

$$
MIZ043>046-050>051-056>058-064>065-071>073-077>080-281300-
SOUTHWEST LOWER MICHIGAN

CITY           SKY/WX    TMP DP  RH WIND       PRES   REMARKS
BATTLE CREEK   PTCLDY    12   6  77 CALM      30.31R
6HR MIN TEMP:  10; 6HR MAX TEMP:  15;

BENTON HARBOR  MOCLDY    13  10  88 SE5       30.30S
6HR MIN TEMP:  10; 6HR MAX TEMP:  15;

BIG RAPIDS     PTCLDY     4   1  88 CALM      30.27S
6HR MIN TEMP:   2; 6HR MAX TEMP:   8;

COLDWATER      CLEAR      7   4  86 CALM      30.31R
6HR MIN TEMP:   6; 6HR MAX TEMP:  10;

HOLLAND        PTCLDY    13   8  81 SE5       30.30S
6HR MIN TEMP:  13; 6HR MAX TEMP:  17;

GRAND RAPIDS   PTCLDY    11   7  84 SE5       30.30S
6HR MIN TEMP:  10; 6HR MAX TEMP:  13;

KALAMAZOO      PTCLDY     9   5  84 CALM      30.31R
6HR MIN TEMP:   8; 6HR MAX TEMP:  12;

MARSHALL       PTCLDY     6   2  86 CALM      30.31R
MUSKEGON       PTCLDY    12   7  80 E3        30.30S
6HR MIN TEMP:  11; 6HR MAX TEMP:  15;

$$
MIZ016>042-281300-
NORTHERN LOWER MICHIGAN

CITY           SKY/WX    TMP DP  RH WIND       PRES   REMARKS
ALPENA         MOCLDY    -2  -8  76 CALM      30.30S
6HR MIN TEMP:  -5; 6HR MAX TEMP:   0;

BEAVER ISLAND  CLOUDY    15  11  85 CALM      30.26R
6HR MIN TEMP:   1; 6HR MAX TEMP:  15;

BELLAIRE       PTCLDY    -1  -5  82 CALM      30.30R
6HR MIN TEMP:  -2; 6HR MAX TEMP:   3;

CADILLAC       PTCLDY    -2  -8  76 CALM      30.23S
CHARLEVOIX     PTCLDY     5   1  86 SE6       30.30R
6HR MIN TEMP:   3; 6HR MAX TEMP:   6;

FRANKFORT      CLOUDY    13  10  89 CALM      30.26S
GAYLORD        PTCLDY    -4  -8  83 CALM      30.23R
6HR MIN TEMP:  -8; 6HR MAX TEMP:   1;

GRAYLING       PTCLDY    -9 -14  77 CALM      30.26S
6HR MIN TEMP: -10; 6HR MAX TEMP:  -4;

HARBOR SPRINGS PTCLDY     0  -4  82 NE3       30.27R
HOUGHTON LAKE  PTCLDY    -5  -9  83 CALM      30.26S
6HR MIN TEMP:  -5; 6HR MAX TEMP:   2;

MANISTEE       PTCLDY     7   1  78 E6        30.28R
OSCODA         PTCLDY    -1  -6  78 CALM      30.31R
PELLSTON       PTCLDY    -8 -12  83 CALM      30.28S
6HR MIN TEMP: -10; 6HR MAX TEMP:  -3;

TRAVERSE CITY  PTCLDY     5   1  83 CALM      30.27R
6HR MIN TEMP:   4; 6HR MAX TEMP:   8;

$$
MIZ007>008-015-281300-
EASTERN UPPER MICHIGAN

CITY           SKY/WX    TMP DP  RH WIND       PRES   REMARKS
KINROSS        MOCLDY     0  -6  78 SE3       30.25S
6HR MIN TEMP:   0; 6HR MAX TEMP:   5;

MACKINAC ISLAN MOCLDY    10  -1  62 S6        30.26S
6HR MIN TEMP:   6; 6HR MAX TEMP:  10;

NEWBERRY       CLOUDY    11   9  89 SW7       30.24R
S. S. MARIE    MOCLDY     0  -5  79 NE3       30.27R
6HR MIN TEMP:  -1; 6HR MAX TEMP:   4;

$$
MIZ004>006-011>014-085-281300-
CENTRAL UPPER MICHIGAN

CITY           SKY/WX    TMP DP  RH WIND       PRES   REMARKS
MANISTIQUE     CLOUDY    23  18  81 CALM      30.24R
ESCANABA       CLOUDY    19  16  86 CALM      30.23S
6HR MIN TEMP:  18; 6HR MAX TEMP:  21;

MENOMINEE      CLOUDY    19  16  86 SW3       30.23R
6HR MIN TEMP:  18; 6HR MAX TEMP:  21;

SAWYER-GWINN   CLOUDY    21  16  79 S8        30.15F
$$
MIZ001>003-009>011-084-281300-
WESTERN UPPER MICHIGAN

CITY           SKY/WX    TMP DP  RH WIND       PRES   REMARKS
IRON MOUNTAIN  CLOUDY    21  16  81 S9        30.16S
6HR MIN TEMP:  21; 6HR MAX TEMP:  22;

HOUGHTON       MOCLDY    22  17  81 S7        30.10S
6HR MIN TEMP:  21; 6HR MAX TEMP:  24;

COPPER HARBOR    N/A     26  19  74 CALM      30.14S
6HR MIN TEMP:  25; 6HR MAX TEMP:  27;

IRONWOOD       CLOUDY    25  21  86 SE5       30.04F
6HR MIN TEMP:  25; 6HR MAX TEMP:  25;

$$

ABBREVIATIONS USED IN REMARKS
   TC - TEMPERATURE IN CELSIUS
  WCI - WIND CHILL INDEX
   HX - HEAT INDEX
  VSB - VISIBILITY




USA.gov is the U.S. government's official web portal to all federal, state and local government web resources and services.